Time,TemperatureF,DewpointF,PressureIn,WindDirection,WindDirectionDegrees,WindSpeedMPH,WindSpeedGustMPH,Humidity,HourlyPrecipIn,Conditions,Clouds,dailyrainin,SoftwareType,DateUTC
2013-11-19 00:00:00,33.0,-99.9,-100.00,South,169,4.0,10.0,-999,0.00,,,0.00,,2013-11-19 06:00:00,
2013-11-19 00:42:00,33.0,-99.9,-100.00,South,169,4.0,10.0,-999,0.00,,,0.00,,2013-11-19 06:42:00,
2013-11-19 00:52:00,33.0,-99.9,-100.00,South,169,4.0,10.0,-999,0.00,,,0.00,,2013-11-19 06:52:00,
2013-11-19 01:00:00,32.0,-99.9,-100.00,SSE,164,4.0,6.0,-999,0.00,,,0.00,,2013-11-19 07:00:00,
2013-11-19 01:42:00,32.0,-99.9,-100.00,SSE,164,4.0,6.0,-999,0.00,,,0.00,,2013-11-19 07:42:00,
2013-11-19 01:52:00,32.0,-99.9,-100.00,SSE,164,4.0,6.0,-999,0.00,,,0.00,,2013-11-19 07:52:00,
2013-11-19 02:00:00,30.0,-99.9,-100.00,SSE,153,4.0,5.0,-999,0.00,,,0.00,,2013-11-19 08:00:00,
2013-11-19 02:42:00,30.0,-99.9,-100.00,SSE,153,4.0,5.0,-999,0.00,,,0.00,,2013-11-19 08:42:00,
2013-11-19 02:52:00,30.0,-99.9,-100.00,SSE,153,4.0,5.0,-999,0.00,,,0.00,,2013-11-19 08:52:00,
2013-11-19 03:00:00,31.0,-99.9,-100.00,SSE,168,4.0,6.0,-999,0.00,,,0.00,,2013-11-19 09:00:00,
2013-11-19 03:43:00,31.0,-99.9,-100.00,SSE,168,4.0,6.0,-999,0.00,,,0.00,,2013-11-19 09:43:00,
2013-11-19 03:53:00,31.0,-99.9,-100.00,SSE,168,4.0,6.0,-999,0.00,,,0.00,,2013-11-19 09:53:00,
2013-11-19 04:00:00,30.0,-99.9,-100.00,SE,138,6.0,11.0,-999,0.00,,,0.00,,2013-11-19 10:00:00,
2013-11-19 04:43:00,30.0,-99.9,-100.00,SE,138,6.0,11.0,-999,0.00,,,0.00,,2013-11-19 10:43:00,
2013-11-19 04:53:00,30.0,-99.9,-100.00,SE,138,6.0,11.0,-999,0.00,,,0.00,,2013-11-19 10:53:00,
2013-11-19 05:00:00,31.0,-99.9,-100.00,SSE,148,6.0,7.0,-999,0.00,,,0.00,,2013-11-19 11:00:00,
2013-11-19 05:42:00,31.0,-99.9,-100.00,SSE,148,6.0,7.0,-999,0.00,,,0.00,,2013-11-19 11:42:00,
2013-11-19 05:52:00,31.0,-99.9,-100.00,SSE,148,6.0,7.0,-999,0.00,,,0.00,,2013-11-19 11:52:00,
2013-11-19 06:00:00,33.0,-99.9,-100.00,SSE,155,9.0,13.0,-999,0.00,,,0.00,,2013-11-19 12:00:00,
2013-11-19 06:42:00,33.0,-99.9,-100.00,SSE,155,9.0,13.0,-999,0.00,,,0.00,,2013-11-19 12:42:00,
2013-11-19 06:52:00,33.0,-99.9,-100.00,SSE,155,9.0,13.0,-999,0.00,,,0.00,,2013-11-19 12:52:00,
2013-11-19 07:00:00,31.0,-99.9,-100.00,SSE,149,9.0,13.0,-999,0.00,,,0.00,,2013-11-19 13:00:00,
2013-11-19 07:52:00,31.0,-99.9,-100.00,SSE,149,9.0,13.0,-999,0.00,,,0.00,,2013-11-19 13:52:00,
2013-11-19 08:00:00,33.0,-99.9,-100.00,SSE,151,9.0,13.0,-999,0.00,,,0.00,,2013-11-19 14:00:00,
2013-11-19 08:42:00,33.0,-99.9,-100.00,SSE,151,9.0,13.0,-999,0.00,,,0.00,,2013-11-19 14:42:00,
2013-11-19 08:52:00,33.0,-99.9,-100.00,SSE,151,9.0,13.0,-999,0.00,,,0.00,,2013-11-19 14:52:00,
2013-11-19 09:00:00,36.0,-99.9,-100.00,SSE,148,11.0,15.0,-999,0.00,,,0.00,,2013-11-19 15:00:00,
2013-11-19 09:43:00,36.0,-99.9,-100.00,SSE,148,11.0,15.0,-999,0.00,,,0.00,,2013-11-19 15:43:00,
2013-11-19 09:54:00,36.0,-99.9,-100.00,SSE,148,11.0,15.0,-999,0.00,,,0.00,,2013-11-19 15:54:00,
2013-11-19 10:00:00,40.0,-99.9,-100.00,SSE,147,10.0,17.0,-999,0.00,,,0.00,,2013-11-19 16:00:00,
2013-11-19 10:43:00,40.0,-99.9,-100.00,SSE,147,10.0,17.0,-999,0.00,,,0.00,,2013-11-19 16:43:00,
2013-11-19 10:53:00,40.0,-99.9,-100.00,SSE,147,10.0,17.0,-999,0.00,,,0.00,,2013-11-19 16:53:00,
2013-11-19 11:00:00,44.0,-99.9,-100.00,SSE,161,13.0,23.0,-999,0.00,,,0.00,,2013-11-19 17:00:00,
2013-11-19 11:53:00,44.0,-99.9,-100.00,SSE,161,13.0,23.0,-999,0.00,,,0.00,,2013-11-19 17:53:00,
2013-11-19 12:00:00,47.0,-99.9,-100.00,SSE,160,13.0,21.0,-999,0.00,,,0.00,,2013-11-19 18:00:00,
2013-11-19 12:42:00,47.0,-99.9,-100.00,SSE,160,13.0,21.0,-999,0.00,,,0.00,,2013-11-19 18:42:00,
2013-11-19 12:52:00,47.0,-99.9,-100.00,SSE,160,13.0,21.0,-999,0.00,,,0.00,,2013-11-19 18:52:00,
2013-11-19 13:00:00,50.0,-99.9,-100.00,SSE,159,13.0,23.0,-999,0.00,,,0.00,,2013-11-19 19:00:00,
2013-11-19 13:42:00,50.0,-99.9,-100.00,SSE,159,13.0,23.0,-999,0.00,,,0.00,,2013-11-19 19:42:00,
2013-11-19 13:52:00,50.0,-99.9,-100.00,SSE,159,13.0,23.0,-999,0.00,,,0.00,,2013-11-19 19:52:00,
2013-11-19 16:00:00,50.0,-99.9,-100.00,SSE,158,12.0,18.0,-999,0.00,,,0.00,,2013-11-19 22:00:00,
2013-11-19 16:43:00,50.0,-99.9,-100.00,SSE,158,12.0,18.0,-999,0.00,,,0.00,,2013-11-19 22:43:00,
2013-11-19 16:53:00,50.0,-99.9,-100.00,SSE,158,12.0,18.0,-999,0.00,,,0.00,,2013-11-19 22:53:00,
2013-11-19 18:00:00,46.0,-99.9,-100.00,SSE,154,13.0,18.0,-999,0.00,,,0.00,,2013-11-20 00:00:00,
2013-11-19 18:42:00,46.0,-99.9,-100.00,SSE,154,13.0,18.0,-999,0.00,,,0.00,,2013-11-20 00:42:00,
2013-11-19 18:52:00,46.0,-99.9,-100.00,SSE,154,13.0,18.0,-999,0.00,,,0.00,,2013-11-20 00:52:00,
2013-11-19 19:00:00,45.0,-99.9,-100.00,SSE,156,13.0,22.0,-999,0.00,,,0.00,,2013-11-20 01:00:00,
2013-11-19 19:42:00,45.0,-99.9,-100.00,SSE,156,13.0,22.0,-999,0.00,,,0.00,,2013-11-20 01:42:00,
2013-11-19 19:52:00,45.0,-99.9,-100.00,SSE,156,13.0,22.0,-999,0.00,,,0.00,,2013-11-20 01:52:00,
2013-11-19 20:00:00,45.0,-99.9,-100.00,SSE,161,16.0,28.0,-999,0.00,,,0.00,,2013-11-20 02:00:00,
2013-11-19 20:42:00,45.0,-99.9,-100.00,SSE,161,16.0,28.0,-999,0.00,,,0.00,,2013-11-20 02:42:00,
2013-11-19 20:53:00,45.0,-99.9,-100.00,SSE,161,16.0,28.0,-999,0.00,,,0.00,,2013-11-20 02:53:00,
2013-11-19 21:00:00,45.0,-99.9,-100.00,SSE,162,15.0,21.0,-999,0.00,,,0.00,,2013-11-20 03:00:00,
2013-11-19 21:44:00,45.0,-99.9,-100.00,SSE,162,15.0,21.0,-999,0.00,,,0.00,,2013-11-20 03:44:00,
2013-11-19 21:54:00,45.0,-99.9,-100.00,SSE,162,15.0,21.0,-999,0.00,,,0.00,,2013-11-20 03:54:00,
2013-11-19 22:00:00,45.0,-99.9,-100.00,SSE,159,12.0,18.0,-999,0.00,,,0.00,,2013-11-20 04:00:00,
2013-11-19 22:43:00,45.0,-99.9,-100.00,SSE,159,12.0,18.0,-999,0.00,,,0.00,,2013-11-20 04:43:00,
2013-11-19 22:53:00,45.0,-99.9,-100.00,SSE,159,12.0,18.0,-999,0.00,,,0.00,,2013-11-20 04:53:00,
2013-11-19 23:00:00,44.0,-99.9,-100.00,SSE,158,14.0,17.0,-999,0.00,,,0.00,,2013-11-20 05:00:00,
2013-11-19 23:43:00,44.0,-99.9,-100.00,SSE,158,14.0,17.0,-999,0.00,,,0.00,,2013-11-20 05:43:00,
2013-11-19 23:53:00,44.0,-99.9,-100.00,SSE,158,14.0,17.0,-999,0.00,,,0.00,,2013-11-20 05:53:00,